Location: �perlecques
(50.8057°N, 2.1521°E)
Time: 18:06:14
(UTC+00:00)

KKS-1 - Pass Details

Date: 06 April 2023
Orbit: 633 x 644 km, 98.2° (Epoch: 03 June)

Event Time Altitude Azimuth Distance (km) Brightness Sun altitude
Rises 22:37:33 0° 14° (NNE) 2,944 ? -30.3°
Reaches altitude 10° 22:39:45 10° 15° (NNE) 2,031 ? -30.4°
Enters shadow 22:42:08 32° 16° (NNE) 1,100 ? -30.5°
